Regional Weather Roundup
Issued by NWS

Home | Current Version | Previous Version | Graphics & Text | Print | Product List | Glossary On
Versions: 1 2 3 4 5 6 7 8 9 10 11 12 13 14 15 16 17 18 19 20 21 22 23 24 25 26 27 28 29 30 31 32 33 34 35 36 37 38 39 40 41 42 43 44 45 46 47 48 49 50
000
ASUS43 KLSX 310707
RWRMO

WEATHER SUMMARY FOR MISSOURI
NATIONAL WEATHER SERVICE SPRINGFIELD MO
200 AM CDT THU JUL 31 2014

NOTE: "FAIR" INDICATES FEW OR NO CLOUDS BELOW 12,000 FEET WITH NO
       SIGNIFICANT WEATHER AND/OR OBSTRUCTIONS TO VISIBILITY.
       CURRENT SKY AND/OR WEATHER CONDITIONS ARE NOT AVAILABLE FOR
       CHILLICOTHE AND FARMINGTON.

MOZ001>031-035>038-043-044-053-054-310800-
...NORTHERN AND WESTERN MISSOURI...

CITY           SKY/WX    TMP DP  RH WIND       PRES   REMARKS
KANSAS CTY INT PTCLDY    65  57  75 N3        30.10F
KANSAS C DTWN  CLEAR     67  61  81 CALM      30.09F
LEE`S SUMMIT   CLEAR     64  61  90 W3        30.10F
ST JOSEPH      CLEAR     57  55  93 CALM      30.11S
CHILLICOTHE      N/A     60  56  86 CALM      30.11S
KIRKSVILLE     CLEAR     56  55  97 CALM      30.10F

$$
MOZ066>068-077>081-088>096-101>105-310800-
...SOUTHWEST MISSOURI...

CITY           SKY/WX    TMP DP  RH WIND       PRES   REMARKS
SPRINGFIELD    CLOUDY    66  64  93 NE5       30.09F
JOPLIN         MOCLDY    66  65  96 NE3       30.09F

$$
MOZ032>034-039>042-045>050-055>058-069>072-310800-
...CENTRAL MISSOURI...

CITY           SKY/WX    TMP DP  RH WIND       PRES   REMARKS
COLUMBIA       CLEAR     62  58  86 N5        30.09F
JEFFERSON CITY CLEAR     63  59  87 NW3       30.08F
ROLLA          PTCLDY    58  57  97 CALM      30.08F
SEDALIA        CLEAR     63  58  83 CALM      30.09F
WHITEMAN AFB   CLEAR     64  53  65 SW2       30.08F
OSAGE BEACH    MOCLDY    59  55  88 CALM      30.09F

$$
MOZ051-052-059>065-310800-
...EAST CENTRAL MISSOURI...

CITY           SKY/WX    TMP DP  RH WIND       PRES   REMARKS
ST LOUIS INTL  PTCLDY    72  60  66 NE3       30.08S
SPIRIT OF STL  CLEAR     63  60  90 CALM      30.07S
ST CHARLES     PTCLDY    64  61  90 CALM      30.07S

$$
MOZ072>076-082>087-097>100-106>115-310800-
...SOUTH CENTRAL AND SOUTHEAST MISSOURI...

CITY           SKY/WX    TMP DP  RH WIND       PRES   REMARKS
CAPE GIRARDEAU PTCLDY    63  61  93 CALM      30.07S FOG
FARMINGTON     PTCLDY    61  59  94 CALM      30.11S
POPLAR BLUFF   CLOUDY    65  62  90 CALM      30.06S FOG
WEST PLAINS    LGT RAIN  66  64  93 CALM      30.10S

$$


USA.gov is the U.S. government's official web portal to all federal, state and local government web resources and services.